Terminal Aerodrome Forecast
Issued by NWS Central Illinois

Home | Current Version | Previous Version | Text Only | Print | Product List | Glossary On
Versions: 1 2 3 4 5 6 7 8 9 10 11 12 13 14 15 16 17 18 19 20 21 22
000
FTUS43 KILX 020400 AAA
TAFPIA
TAF AMD
KPIA 020434Z 0205/0224 24005KT P6SM SCT035 BKN250
     FM020900 VRB03KT 5SM BR BKN250
     FM021400 27006KT P6SM SCT030 BKN250=

USA.gov is the U.S. government's official web portal to all federal, state and local government web resources and services.